CYGL

La Grande Riviere Airport

ICAO Code CYGL
IATA Code YGL
Name La Grande Riviere Airport
Location La Grande Riviere, Quebec, CA
Elevation 640 Feet / 195.1 Meters
Latitude 53.62527778
Longitude -77.70416667
METAR CYGL 260500Z 02004KT 340V050 15SM OVC010 01/M01 A3030 RMK SC8 SLP273
Extra information Display Charts and CFS
Display NOTAMS
Runway Length Width Surface Elevation
13 6487 ft 150 ft ASP 595 ft
31 6487 ft 150 ft ASP 640 ft

Mandatory Routes

La Grande Riviere Airport

Direction Destination Level Remark Type Route
DEP TO CYUL H&L RNAV OBRET